Showing default

COSMOS 1690, 16138

Orbit data source: Space-Track

COSMOS 1690, 16138 is a payload satellite owned by GUKOS (CIS) in LEO that was launched on Wed, 09 Oct 1985 UTC via a TSIKLON-3 launch vehicle from the Plesetsk Missile And Space Complex (PKMTR). Payload-class satellites include a variety of spacecraft equipped with specific instruments for various scientific and technological missions. These include communications satellites like Starlink; space stations such as the ISS; scientific satellites like the Hubble; Earth observation satellites from companies like Planet Labs, Umbra, and HawkEye 360; GPS; miniature CubeSats for education and research; and military/defense satellites.

Loading next visibility...
Identifier
16138, 1985-094A
Orbit
LEO
Country
Flag of CISCIS
Related business
Manufacturer
NPO PM
Mission
Spacecraft
Bus & Motor
STRELA-3, Unknown motor
Mass
225 kg wet, 225 kg dry
Launch date (UTC)
1985-10-09 (40 years ago)
Launch vehicle
TSIKLON-3
Launch site
Plesetsk Missile And Space Complex (PKMTR)
Object type
Payload
Rocket body
Debris
Shape & HBR
Unknown
Radar Cross Section
Large (>1 m²)

Expand to show TLE details & history
Last TLE update: 10 hours ago

TLE from 10 hours ago
0 COSMOS 1690
1 16138U 85094A   26037.21489985  .00000045  00000-0  18103-3 0  9994
2 16138  82.6097 304.9069 0020815 232.4869 282.6870 12.66102000863417
Epoch: 2026-02-06T05:09Z
TLE epoch observation values (Epoch: 2026-02-06T05:09:27.347Z)
Latitude
24.86229°
Longitude
-92.2417°
Altitude
1,397.204 km
Speed
7.165 km/s
True Right ascension
08h 05m 54s
True Declination
24° 44' 32"
Sunlit
Object was in full shadow at epoch
Visualization orbit readout
Latitude
Unknown
Longitude
Unknown
Altitude
Unknown
Speed
Unknown
Apparent Right ascension
Unknown
Apparent Declination
Unknown
Sunlit
N/A
Visualization observer readout
Local Sidereal Time
17:09:30
Azimuth
Unknown
Elevation
Unknown
Doppler factor
Unknown
Orbital elements
Apogee altitude
1,411.354 km
Perigee altitude
1,378.993 km
Semi-major axis
7,773.31 km
Eccentricity
0.00208
Inclination
82.6097°
RAAN
304.9069°
Arg. of periapsis
232.4869°
True anomaly
282.45417°
Mean anomaly
282.687°
Eccentric anomaly
282.5706°
Mean motion
3.1669 °/min
Orbital period
113.68 mins
BSTAR
0.00018103
Loading maneuver chart data...
Computing Atmospheric mass density...
Loading historical data...
Loading historical data...
Loading historical data...
Loading historical data...
Loading historical data...
Loading historical data...
Loading historical data...

Documentation

Showing up to 5 results
|